Date String (YYYY-MM-DD hh:mm:ss) UTC,Instrument flags,Ambient pressure (hPa),Sample flow (lpm),Bypass flow (lpm),Sample temperature (°C),Ambient temperature (°C),ASC tube jacket temperature (°C),LED temperature (°C),Box temperature (°C),Sample RH (%),Span deviation,Mass concentration (μg/m³),Mass concentration (μg/m³),Mass concentration (μg/m³)
DateTimeUTC,F1_M11,P_M11,Q1_M11,Q2_M11,T1_M11,T2_M11,T3_M11,T4_M11,T5_M11,U1_M11,ZSPAN_M11,X2_M11,X0_M11,X1_M11
2023-02-18 02:00:00,,0826.4,4.99,0.00,25.2,23.2,00.0,34.2,26.9,05.1,0000.0,0000.96,0002.33,0000.74
2023-02-18 02:01:00,,0826.3,4.99,0.00,25.2,23.2,00.0,34.2,26.9,04.9,0000.0,0000.95,0002.29,0000.76
2023-02-18 02:02:00,,0826.4,4.98,0.00,25.2,23.2,00.0,34.2,26.9,05.2,0000.0,0000.93,0002.57,0000.76
2023-02-18 02:03:00,,0826.4,4.99,0.00,25.2,23.2,00.0,34.2,26.9,05.0,0000.0,0001.00,0002.99,0000.77
2023-02-18 02:04:00,,0826.4,5.01,0.00,25.2,23.3,00.0,34.2,26.9,04.8,0000.0,0000.98,0002.68,0000.77
2023-02-18 02:05:00,,0826.5,4.98,0.00,25.2,23.3,00.0,34.2,26.9,04.9,0000.0,0000.98,0002.68,0000.77
2023-02-18 02:06:00,,0826.4,5.00,0.00,25.2,23.3,00.0,34.2,26.9,05.1,0000.0,0001.02,0002.74,0000.78
2023-02-18 02:07:00,,0826.4,4.97,0.00,25.2,23.3,00.0,34.1,26.9,05.2,0000.0,0001.04,0002.46,0000.79
2023-02-18 02:08:00,,0826.4,5.01,0.00,25.1,23.3,00.0,34.1,26.9,05.1,0000.0,0001.08,0002.53,0000.80
2023-02-18 02:09:00,,0826.5,5.00,0.00,25.1,23.3,00.0,34.1,26.8,04.9,0000.0,0001.08,0002.53,0000.80
2023-02-18 02:10:00,,0826.4,5.00,0.00,25.1,23.2,00.0,34.1,26.7,04.9,0000.0,0001.08,0002.39,0000.79
2023-02-18 02:11:00,,0826.5,5.01,0.00,25.0,23.1,00.0,34.1,26.7,04.9,0000.0,0001.10,0002.44,0000.79
2023-02-18 02:12:00,,0826.4,4.99,0.00,25.0,23.1,00.0,34.0,26.7,05.0,0000.0,0001.11,0002.48,0000.78
2023-02-18 02:13:00,,0826.4,5.00,0.00,25.0,23.1,00.0,34.0,26.6,05.1,0000.0,0001.14,0002.23,0000.78
2023-02-18 02:14:00,,0826.5,4.99,0.00,24.9,23.0,00.0,34.0,26.6,05.1,0000.0,0001.08,0001.67,0000.78
2023-02-18 02:15:00,,0826.4,5.01,0.00,24.9,22.9,00.0,34.0,26.5,05.1,0000.0,0001.08,0001.66,0000.78
2023-02-18 02:16:00,,0826.4,4.99,0.00,24.9,22.9,00.0,34.0,26.6,05.2,0000.0,0001.08,0001.67,0000.77
2023-02-18 02:17:00,,0826.4,5.00,0.00,24.8,22.8,00.0,33.9,26.5,05.3,0000.0,0001.08,0002.08,0000.78
2023-02-18 02:18:00,,0826.4,4.99,0.00,24.8,22.8,00.0,33.9,26.5,05.5,0000.0,0001.06,0002.45,0000.78
2023-02-18 02:19:00,,0826.3,5.00,0.00,24.8,22.8,00.0,33.9,26.5,05.5,0000.0,0001.02,0002.37,0000.77
2023-02-18 02:20:00,,0826.3,4.99,0.00,24.8,22.9,00.0,33.9,26.5,05.3,0000.0,0001.01,0002.36,0000.77
2023-02-18 02:21:00,,0826.3,5.01,0.00,24.8,22.8,00.0,33.9,26.5,05.2,0000.0,0000.99,0002.31,0000.77
2023-02-18 02:22:00,,0826.3,5.01,0.00,24.7,22.8,00.0,33.8,26.4,05.1,0000.0,0001.00,0002.26,0000.76
2023-02-18 02:23:00,,0826.3,5.00,0.00,24.7,22.7,00.0,33.8,26.4,05.3,0000.0,0000.99,0002.25,0000.77
2023-02-18 02:24:00,,0826.4,4.98,0.00,24.7,22.7,00.0,33.8,26.4,05.4,0000.0,0000.96,0002.24,0000.76
2023-02-18 02:25:00,,0826.4,5.02,0.00,24.7,22.7,00.0,33.8,26.3,05.0,0000.0,0000.98,0002.42,0000.76
2023-02-18 02:26:00,,0826.3,5.00,0.00,24.6,22.7,00.0,33.7,26.3,05.0,0000.0,0001.02,0002.59,0000.75
2023-02-18 02:27:00,,0826.3,5.00,0.00,24.6,22.6,00.0,33.7,26.2,04.9,0000.0,0001.04,0002.67,0000.75
2023-02-18 02:28:00,,0826.4,5.01,0.00,24.6,22.5,00.0,33.7,26.2,04.6,0000.0,0001.01,0002.42,0000.73
2023-02-18 02:29:00,,0826.3,5.00,0.00,24.5,22.5,00.0,33.6,26.1,04.9,0000.0,0000.97,0001.76,0000.70
2023-02-18 02:30:00,,0826.4,5.00,0.00,24.5,22.5,00.0,33.6,26.1,05.3,0000.0,0000.98,0001.80,0000.69
2023-02-18 02:31:00,,0826.4,4.99,0.00,24.5,22.5,00.0,33.6,26.2,05.4,0000.0,0001.01,0001.85,0000.70
2023-02-18 02:32:00,,0826.5,5.02,0.00,24.5,22.5,00.0,33.6,26.2,04.8,0000.0,0001.00,0001.87,0000.69
2023-02-18 02:33:00,,0826.5,4.98,0.00,24.5,22.5,00.0,33.6,26.2,04.8,0000.0,0000.99,0001.88,0000.68
2023-02-18 02:34:00,,0826.4,4.99,0.00,24.5,22.5,00.0,33.5,26.2,04.8,0000.0,0000.96,0001.86,0000.68
2023-02-18 02:35:00,,0826.3,5.00,0.00,24.4,22.5,00.0,33.5,26.1,04.8,0000.0,0000.95,0001.84,0000.66
2023-02-18 02:36:00,,0826.3,5.00,0.00,24.4,22.5,00.0,33.5,26.2,04.9,0000.0,0000.93,0001.68,0000.65
2023-02-18 02:37:00,,0826.2,5.00,0.00,24.4,22.5,00.0,33.5,26.2,04.9,0000.0,0000.84,0001.40,0000.63
2023-02-18 02:38:00,,0826.1,5.00,0.00,24.4,22.6,00.0,33.5,26.2,04.5,0000.0,0000.78,0001.25,0000.61
2023-02-18 02:39:00,,0826.2,5.01,0.00,24.4,22.6,00.0,33.5,26.2,04.8,0000.0,0000.76,0001.17,0000.60
2023-02-18 02:40:00,,0826.1,4.99,0.00,24.4,22.7,00.0,33.4,26.2,05.2,0000.0,0000.82,0001.25,0000.61
2023-02-18 02:41:00,,0826.2,5.00,0.00,24.4,22.7,00.0,33.4,26.2,05.3,0000.0,0000.86,0001.42,0000.61
2023-02-18 02:42:00,,0826.2,5.00,0.00,24.4,22.6,00.0,33.4,26.1,05.4,0000.0,0000.84,0001.36,0000.60
2023-02-18 02:43:00,,0826.2,5.00,0.00,24.4,22.7,00.0,33.4,26.1,05.2,0000.0,0000.83,0001.35,0000.59
2023-02-18 02:44:00,,0826.3,4.99,0.00,24.4,22.7,00.0,33.4,26.1,04.5,0000.0,0000.81,0001.28,0000.59
2023-02-18 02:45:00,,0826.3,5.00,0.00,24.4,22.7,00.0,33.4,26.1,05.3,0000.0,0000.81,0001.23,0000.60
2023-02-18 02:46:00,,0826.4,5.02,0.00,24.4,22.7,00.0,33.4,26.1,07.4,0000.0,0001.16,0002.75,0000.90
2023-02-18 02:47:00,,0826.4,4.99,0.00,24.4,22.7,00.0,33.4,26.2,07.5,0000.0,0001.58,0004.06,0001.28
2023-02-18 02:48:00,,0826.4,4.99,0.00,24.4,22.8,00.0,33.4,26.2,07.4,0000.0,0002.01,0004.80,0001.64
2023-02-18 02:49:00,,0826.3,5.00,0.00,24.4,22.8,00.0,33.4,26.2,07.1,0000.0,0002.38,0005.27,0001.97
2023-02-18 02:50:00,,0826.3,4.98,0.00,24.4,22.8,00.0,33.4,26.2,06.6,0000.0,0002.77,0005.76,0002.32
2023-02-18 02:51:00,,0826.2,5.02,0.00,24.4,22.8,00.0,33.4,26.3,06.6,0000.0,0003.08,0006.24,0002.59
2023-02-18 02:52:00,,0826.2,5.00,0.00,24.4,22.8,00.0,33.4,26.2,06.0,0000.0,0003.18,0006.38,0002.74
2023-02-18 02:53:00,,0826.3,5.01,0.00,24.4,22.8,00.0,33.4,26.3,05.6,0000.0,0003.20,0006.47,0002.80
2023-02-18 02:54:00,,0826.2,5.00,0.00,24.4,22.8,00.0,33.4,26.3,05.8,0000.0,0003.22,0006.56,0002.83
2023-02-18 02:55:00,,0826.2,5.00,0.00,24.5,22.8,00.0,33.4,26.3,05.7,0000.0,0003.24,0006.62,0002.85
2023-02-18 02:56:00,,0826.2,5.00,0.00,24.5,22.9,00.0,33.4,26.2,05.7,0000.0,0003.25,0006.64,0002.86
2023-02-18 02:57:00,,0826.2,4.99,0.00,24.5,22.9,00.0,33.4,26.2,05.7,0000.0,0003.05,0005.62,0002.58
2023-02-18 02:58:00,,0826.2,4.99,0.00,24.5,22.9,00.0,33.3,26.3,05.7,0000.0,0002.68,0004.62,0002.21
2023-02-18 02:59:00,,0826.2,4.99,0.00,24.5,22.9,00.0,33.3,26.3,05.8,0000.0,0002.30,0004.10,0001.88
